�������l�o���
Date,Time,MP-1(��Sv/h),MP-2(��Sv/h),MP-3(��Sv/h),MP-4(��Sv/h),MP-5(��Sv/h),MP-6(��Sv/h),MP-7(��Sv/h),MP-8(��Sv/h),����,����(m/s),���J
2017/12/28,00:00,0.887,1.480,0.930,1.759,1.187,0.491,0.878,0.844,�k��,11.0,��
2017/12/28,00:10,0.888,1.479,0.930,1.757,1.185,0.491,0.881,0.844,�k��,8.2,��
2017/12/28,00:20,0.884,1.477,0.928,1.755,1.182,0.493,0.880,0.842,���k��,7.9,��
2017/12/28,00:30,0.886,1.480,0.930,1.760,1.183,0.491,0.880,0.846,�k��,7.1,��
2017/12/28,00:40,0.886,1.478,0.931,1.758,1.186,0.492,0.881,0.845,���k��,8.6,��
2017/12/28,00:50,0.887,1.476,0.932,1.759,1.183,0.491,0.879,0.844,�k��,9.7,��
2017/12/28,01:00,0.886,1.479,0.932,1.759,1.182,0.491,0.881,0.844,�k��,12.7,��
2017/12/28,01:10,0.886,1.477,0.932,1.757,1.185,0.492,0.881,0.845,�k��,11.9,��
2017/12/28,01:20,0.886,1.479,0.930,1.762,1.182,0.492,0.881,0.845,���k��,9.6,��
2017/12/28,01:30,0.888,1.478,0.929,1.757,1.183,0.492,0.882,0.844,���k��,12.1,��
2017/12/28,01:40,0.887,1.479,0.930,1.758,1.181,0.493,0.879,0.844,���k��,13.0,��
2017/12/28,01:50,0.887,1.476,0.931,1.760,1.185,0.493,0.880,0.845,��,12.4,��
2017/12/28,02:00,0.885,1.481,0.931,1.759,1.183,0.492,0.881,0.845,��,13.6,��
2017/12/28,02:10,0.886,1.479,0.930,1.761,1.185,0.492,0.880,0.845,��,11.4,��
2017/12/28,02:20,0.887,1.477,0.930,1.760,1.183,0.492,0.879,0.844,��,13.8,��
2017/12/28,02:30,0.886,1.483,0.932,1.758,1.182,0.491,0.880,0.845,��,14.1,��
2017/12/28,02:40,0.885,1.479,0.932,1.758,1.181,0.492,0.879,0.845,��,11.1,��
2017/12/28,02:50,0.887,1.477,0.930,1.760,1.181,0.490,0.878,0.845,��,10.0,��
2017/12/28,03:00,0.888,1.480,0.932,1.761,1.181,0.493,0.878,0.846,��,13.0,��
2017/12/28,03:10,0.885,1.481,0.930,1.762,1.183,0.492,0.879,0.845,��,14.9,��
2017/12/28,03:20,0.885,1.482,0.930,1.760,1.180,0.492,0.881,0.844,��,13.0,��
2017/12/28,03:30,0.887,1.482,0.932,1.761,1.185,0.492,0.879,0.845,��,12.8,��
2017/12/28,03:40,0.887,1.481,0.931,1.760,1.181,0.492,0.880,0.844,��,12.5,��
2017/12/28,03:50,0.884,1.480,0.929,1.760,1.183,0.493,0.879,0.844,��,11.6,��
2017/12/28,04:00,0.887,1.480,0.929,1.760,1.182,0.491,0.880,0.846,��,10.0,��
2017/12/28,04:10,0.886,1.476,0.932,1.760,1.182,0.493,0.880,0.846,���k��,10.6,��
2017/12/28,04:20,0.887,1.479,0.934,1.763,1.185,0.491,0.879,0.844,��,11.1,��
2017/12/28,04:30,0.887,1.481,0.931,1.764,1.183,0.492,0.880,0.844,���k��,9.7,��
2017/12/28,04:40,0.886,1.482,0.930,1.761,1.184,0.492,0.879,0.845,���k��,10.6,��
2017/12/28,04:50,0.888,1.482,0.929,1.761,1.182,0.491,0.878,0.842,���k��,10.2,��
2017/12/28,05:00,0.886,1.483,0.932,1.760,1.184,0.492,0.878,0.843,���k��,9.2,��
2017/12/28,05:10,0.889,1.480,0.930,1.763,1.183,0.492,0.879,0.844,��,9.4,��
2017/12/28,05:20,0.886,1.480,0.932,1.762,1.184,0.491,0.878,0.843,���k��,9.4,��
2017/12/28,05:30,0.887,1.481,0.930,1.759,1.185,0.492,0.879,0.843,���k��,8.6,��
2017/12/28,05:40,0.886,1.481,0.931,1.760,1.183,0.494,0.878,0.843,���k��,8.2,��
2017/12/28,05:50,0.888,1.481,0.929,1.761,1.184,0.490,0.879,0.843,���k��,8.3,��
2017/12/28,06:00,0.886,1.481,0.932,1.762,1.185,0.492,0.877,0.843,���k��,9.2,��
2017/12/28,06:10,0.888,1.479,0.931,1.761,1.182,0.491,0.878,0.845,���k��,7.3,��
2017/12/28,06:20,0.886,1.478,0.929,1.760,1.183,0.491,0.878,0.844,���k��,8.7,��
2017/12/28,06:30,0.885,1.479,0.931,1.762,1.184,0.493,0.878,0.844,���k��,9.0,��
2017/12/28,06:40,0.884,1.482,0.931,1.758,1.186,0.492,0.880,0.845,���k��,9.9,��
2017/12/28,06:50,0.887,1.478,0.931,1.759,1.183,0.491,0.879,0.846,���k��,9.1,��
2017/12/28,07:00,0.884,1.477,0.931,1.761,1.187,0.492,0.880,0.844,���k��,10.2,��
2017/12/28,07:10,0.886,1.480,0.931,1.763,1.182,0.492,0.879,0.847,���k��,9.1,��
2017/12/28,07:20,0.885,1.481,0.931,1.761,1.182,0.492,0.879,0.844,��,8.4,��
2017/12/28,07:30,0.884,1.482,0.932,1.760,1.183,0.491,0.879,0.844,��,10.4,��
2017/12/28,07:40,0.886,1.484,0.932,1.760,1.182,0.493,0.880,0.845,���k��,9.0,��
2017/12/28,07:50,0.887,1.481,0.931,1.761,1.185,0.492,0.878,0.844,���k��,9.0,��
2017/12/28,08:00,0.885,1.481,0.930,1.763,1.185,0.491,0.878,0.844,���k��,10.9,��
2017/12/28,08:10,0.886,1.480,0.932,1.762,1.184,0.490,0.881,0.844,���k��,10.2,��
2017/12/28,08:20,0.886,1.481,0.933,1.761,1.185,0.491,0.880,0.846,���k��,9.5,��
2017/12/28,08:30,0.887,1.481,0.930,1.762,1.182,0.490,0.881,0.845,���k��,10.9,��
2017/12/28,08:40,0.889,1.484,0.932,1.759,1.182,0.490,0.880,0.845,���k��,10.8,��
2017/12/28,08:50,0.888,1.480,0.930,1.762,1.182,0.492,0.879,0.844,���k��,11.3,��
2017/12/28,09:00,0.889,1.482,0.936,1.762,1.184,0.491,0.879,0.846,���k��,10.8,��
2017/12/28,09:10,0.888,1.481,0.934,1.765,1.184,0.493,0.880,0.846,���k��,9.9,��
2017/12/28,09:20,0.887,1.480,0.932,1.765,1.185,0.492,0.881,0.846,���k��,11.0,��
2017/12/28,09:30,0.889,1.482,0.934,1.763,1.183,0.492,0.882,0.846,���k��,11.9,��
2017/12/28,09:40,0.888,1.481,0.930,1.764,1.183,0.492,0.881,0.844,���k��,9.7,��
2017/12/28,09:50,0.891,1.483,0.933,1.763,1.185,0.493,0.880,0.846,���k��,8.5,��
2017/12/28,10:00,0.891,1.485,0.933,1.766,1.184,0.491,0.880,0.846,���k��,10.9,��
2017/12/28,10:10,0.890,1.482,0.933,1.762,1.186,0.492,0.880,0.846,���k��,10.4,��
2017/12/28,10:20,0.892,1.485,0.935,1.766,1.186,0.492,0.881,0.846,���k��,10.6,��
2017/12/28,10:30,0.890,1.482,0.936,1.767,1.185,0.491,0.881,0.846,���k��,9.5,��
2017/12/28,10:40,0.892,1.483,0.935,1.766,1.187,0.492,0.882,0.844,���k��,11.9,��
2017/12/28,10:50,0.890,1.483,0.933,1.768,1.189,0.491,0.882,0.844,���k��,8.8,��
2017/12/28,11:00,0.893,1.482,0.934,1.764,1.187,0.493,0.880,0.845,���k��,9.2,��
2017/12/28,11:10,0.893,1.484,0.934,1.764,1.189,0.493,0.881,0.845,���k��,7.7,��
2017/12/28,11:20,0.891,1.481,0.936,1.764,1.188,0.492,0.882,0.847,�k��,9.7,��
2017/12/28,11:30,0.892,1.481,0.933,1.765,1.191,0.493,0.880,0.847,�k��,10.4,��
2017/12/28,11:40,0.893,1.484,0.936,1.764,1.190,0.493,0.880,0.847,���k��,10.4,��
2017/12/28,11:50,0.892,1.483,0.932,1.767,1.191,0.492,0.880,0.846,���k��,12.1,��
2017/12/28,12:00,0.893,1.484,0.934,1.765,1.189,0.492,0.882,0.845,���k��,11.4,��
2017/12/28,12:10,0.895,1.484,0.936,1.766,1.190,0.493,0.881,0.847,���k��,13.9,��
2017/12/28,12:20,0.893,1.484,0.934,1.770,1.188,0.492,0.879,0.847,��,14.4,��
2017/12/28,12:30,0.893,1.485,0.937,1.767,1.188,0.493,0.882,0.847,��,12.8,��
2017/12/28,12:40,0.892,1.489,0.934,1.767,1.192,0.492,0.884,0.847,��,10.5,��
2017/12/28,12:50,0.894,1.488,0.935,1.766,1.191,0.493,0.881,0.846,��,10.8,��
2017/12/28,13:00,0.894,1.488,0.935,1.766,1.192,0.493,0.881,0.845,���k��,12.4,��
2017/12/28,13:10,0.895,1.483,0.936,1.771,1.190,0.494,0.881,0.846,���k��,15.2,��
2017/12/28,13:20,0.893,1.485,0.937,1.768,1.193,0.495,0.882,0.846,���k��,15.8,��
2017/12/28,13:30,0.893,1.484,0.936,1.771,1.191,0.492,0.882,0.847,���k��,13.5,��
2017/12/28,13:40,0.895,1.484,0.936,1.770,1.194,0.493,0.881,0.846,���k��,10.2,��
2017/12/28,13:50,0.894,1.485,0.938,1.767,1.195,0.494,0.880,0.845,��,11.7,��
2017/12/28,14:00,0.893,1.486,0.936,1.768,1.192,0.492,0.880,0.846,���k��,11.3,��
2017/12/28,14:10,0.895,1.488,0.938,1.769,1.192,0.493,0.883,0.845,���k��,12.4,��
2017/12/28,14:20,0.893,1.484,0.936,1.769,1.193,0.494,0.881,0.846,���k��,11.9,��
2017/12/28,14:30,0.894,1.486,0.935,1.770,1.191,0.493,0.883,0.846,���k��,9.8,��
2017/12/28,14:40,0.894,1.487,0.934,1.771,1.193,0.494,0.883,0.846,���k��,5.1,��
2017/12/28,14:50,0.893,1.485,0.938,1.770,1.192,0.492,0.882,0.846,���k��,7.5,��
2017/12/28,15:00,0.896,1.488,0.937,1.769,1.193,0.493,0.883,0.848,���k��,8.3,��
2017/12/28,15:10,0.895,1.489,0.936,1.770,1.193,0.494,0.882,0.846,�k��,9.5,��
2017/12/28,15:20,0.893,1.488,0.937,1.767,1.192,0.493,0.881,0.847,���k��,11.9,��
2017/12/28,15:30,0.895,1.490,0.936,1.767,1.194,0.493,0.882,0.844,�k��,9.0,��
2017/12/28,15:40,0.896,1.489,0.936,1.767,1.193,0.492,0.881,0.846,�k��,10.0,��
2017/12/28,15:50,0.894,1.488,0.934,1.767,1.195,0.493,0.883,0.845,�k��,7.5,��
2017/12/28,16:00,0.895,1.489,0.937,1.768,1.192,0.493,0.881,0.846,�k��,6.8,��
2017/12/28,16:10,0.894,1.491,0.935,1.768,1.193,0.491,0.881,0.845,���k��,7.5,��
2017/12/28,16:20,0.895,1.488,0.935,1.771,1.194,0.492,0.883,0.846,�k��,7.8,��
2017/12/28,16:30,0.891,1.485,0.933,1.770,1.189,0.492,0.880,0.845,���k��,7.5,��
2017/12/28,16:40,0.892,1.487,0.934,1.770,1.192,0.494,0.880,0.846,�k��,9.2,��
2017/12/28,16:50,0.893,1.488,0.935,1.768,1.191,0.492,0.880,0.844,���k��,7.9,��
2017/12/28,17:00,0.893,1.489,0.936,1.769,1.192,0.493,0.880,0.845,���k��,8.9,��
2017/12/28,17:10,0.891,1.489,0.934,1.768,1.191,0.492,0.879,0.845,�k��,8.0,��
2017/12/28,17:20,0.892,1.488,0.933,1.769,1.192,0.491,0.879,0.845,���k��,9.7,��
2017/12/28,17:30,0.892,1.492,0.935,1.771,1.192,0.492,0.880,0.845,���k��,9.9,��
2017/12/28,17:40,0.893,1.488,0.932,1.767,1.190,0.491,0.881,0.844,���k��,8.9,��
2017/12/28,17:50,0.893,1.489,0.931,1.769,1.192,0.491,0.881,0.845,���k��,6.9,��
2017/12/28,18:00,0.893,1.486,0.934,1.766,1.192,0.492,0.882,0.846,���k��,8.7,��
2017/12/28,18:10,0.892,1.489,0.934,1.768,1.193,0.489,0.879,0.846,���k��,9.0,��
2017/12/28,18:20,0.891,1.490,0.933,1.766,1.190,0.489,0.880,0.843,���k��,7.9,��
2017/12/28,18:30,0.892,1.486,0.932,1.769,1.190,0.492,0.882,0.844,���k��,9.1,��
2017/12/28,18:40,0.890,1.487,0.934,1.772,1.192,0.489,0.880,0.846,���k��,7.7,��
2017/12/28,18:50,0.892,1.490,0.934,1.766,1.191,0.492,0.880,0.847,���k��,7.7,��
2017/12/28,19:00,0.889,1.486,0.934,1.768,1.188,0.494,0.882,0.844,���k��,8.8,��
2017/12/28,19:10,0.891,1.490,0.934,1.770,1.190,0.491,0.879,0.844,�k��,11.0,��
2017/12/28,19:20,0.891,1.487,0.932,1.768,1.191,0.492,0.882,0.846,�k��,8.3,��
2017/12/28,19:30,0.888,1.489,0.934,1.768,1.190,0.491,0.881,0.847,�k��,8.3,��
2017/12/28,19:40,0.892,1.489,0.935,1.769,1.190,0.492,0.880,0.844,���k��,6.5,��
2017/12/28,19:50,0.892,1.490,0.932,1.770,1.194,0.492,0.880,0.846,�k��,8.5,��
2017/12/28,20:00,0.892,1.488,0.935,1.772,1.190,0.490,0.880,0.846,�k��,9.7,��
2017/12/28,20:10,0.893,1.488,0.933,1.772,1.193,0.493,0.880,0.846,�k��,9.9,��
2017/12/28,20:20,0.890,1.488,0.936,1.768,1.191,0.490,0.880,0.845,�k��,8.7,��
2017/12/28,20:30,0.893,1.487,0.934,1.768,1.192,0.492,0.882,0.845,���k��,8.1,��
2017/12/28,20:40,0.890,1.489,0.936,1.769,1.192,0.493,0.881,0.845,���k��,13.0,��
2017/12/28,20:50,0.890,1.489,0.936,1.769,1.192,0.492,0.879,0.845,�k��,11.3,��
2017/12/28,21:00,0.891,1.491,0.934,1.769,1.191,0.491,0.881,0.845,���k��,13.9,��
2017/12/28,21:10,0.891,1.490,0.935,1.771,1.191,0.494,0.879,0.844,���k��,13.8,��
2017/12/28,21:20,0.892,1.488,0.936,1.769,1.192,0.493,0.880,0.847,���k��,12.4,��
2017/12/28,21:30,0.893,1.488,0.935,1.770,1.188,0.493,0.881,0.843,�k��,10.2,��
2017/12/28,21:40,0.893,1.488,0.934,1.770,1.188,0.490,0.879,0.845,�k��,16.9,��
2017/12/28,21:50,0.893,1.491,0.934,1.771,1.188,0.492,0.877,0.847,�k��,14.6,��
2017/12/28,22:00,0.892,1.487,0.937,1.773,1.191,0.492,0.880,0.845,�k��,11.9,��
2017/12/28,22:10,0.893,1.487,0.934,1.773,1.191,0.493,0.878,0.845,�k��,10.5,��
2017/12/28,22:20,0.892,1.489,0.934,1.772,1.190,0.492,0.879,0.846,�k��,8.7,��
2017/12/28,22:30,0.892,1.487,0.934,1.772,1.190,0.492,0.880,0.845,�k��,8.0,��
2017/12/28,22:40,0.892,1.491,0.936,1.773,1.190,0.492,0.881,0.846,�k��,6.3,��
2017/12/28,22:50,0.890,1.489,0.934,1.773,1.192,0.493,0.880,0.847,�k��,5.4,��
2017/12/28,23:00,0.890,1.486,0.937,1.769,1.190,0.493,0.881,0.845,�k��,7.0,��
2017/12/28,23:10,0.893,1.487,0.936,1.771,1.191,0.494,0.881,0.846,�k��,5.0,��
2017/12/28,23:20,0.892,1.488,0.936,1.770,1.192,0.494,0.880,0.846,�k��,6.8,��
2017/12/28,23:30,0.893,1.488,0.935,1.772,1.191,0.493,0.879,0.844,���k��,4.9,��
2017/12/28,23:40,0.893,1.490,0.935,1.768,1.195,0.494,0.880,0.845,���k��,2.6,��
2017/12/28,23:50,0.890,1.489,0.935,1.768,1.193,0.493,0.880,0.845,�k,1.9,��
